Lid_Strength_Index
11 11 11 11 11 11 11 10 10 10 10 10 11 11 11 11 12 12 12 12 13 13 13 13 12 12 12 12 13 14 15 15 14 18 17 16 15 16 16 16 15 15 15
11 11 11 11 12 12 12 12 11 11 11 11 11 11 12 12 12 13 13 13 14 14 13 13 13 14 13 14 15 16 16 16 15 18 18 18 18 17 16 17 17 17 16
11 11 11 11 12 13 13 12 12 12 12 11 12 12 12 12 13 13 13 12 13 13 13 13 14 14 15 15 16 17 17 17 16 16 18 17 17 17 17 17 17 16 16
12 12 12 12 12 13 14 13 13 13 13 12 12 12 12 12 13 13 13 13 13 13 13 13 14 15 15 15 16 16 17 16 17 17 17 19 18 17 17 17 17 16 16
13 13 13 12 12 13 14 14 13 13 13 12 13 12 12 12 13 14 14 13 13 13 13 14 14 14 14 14 16 16 16 16 17 18 18 19 19 19 18 17 17 16 15
14 13 12 12 13 15 14 14 13 12 12 12 13 12 12 12 12 11 13 14 14 14 14 14 15 15 15 14 14 14 15 16 18 18 18 19 18 17 17 17 17 18 17
12 12 12 11 13 14 14 13 13 13 13 12 11 11 11 11 11 11 12 14 14 14 14 15 16 15 15 15 14 14 14 14 15 16 17 17 17 17 17 18 17 17 17
12 12 12 12 14 14 13 13 13 13 14 13 12 11 11 12 11 11 12 13 14 14 14 15 15 16 16 16 15 15 16 16 16 16 16 16 16 15 16 16 16 16 16
11 12 11 13 15 14 15 13 13 13 13 13 12 12 12 12 11 11 11 13 14 14 14 14 15 15 15 14 16 16 17 17 15 15 15 15 15 15 16 16 18 19 19
11 11 11 12 14 14 14 14 13 12 12 12 12 11 12 13 12 12 12 12 13 14 14 15 14 15 15 14 16 16 18 18 17 17 16 15 15 16 16 16 16 18 19
12 12 12 13 14 14 14 14 14 14 13 12 12 11 12 13 12 12 12 12 12 13 14 15 16 14 15 14 14 16 16 16 16 16 16 16 16 16 16 16 17 18 19
13 14 14 15 15 15 16 16 16 15 14 14 12 12 12 12 13 12 12 12 11 13 14 15 16 15 14 14 14 15 14 15 16 17 17 18 18 18 18 18 18 18 17
15 16 16 16 17 17 17 17 17 16 16 14 12 13 13 12 13 13 12 12 12 12 14 15 15 15 14 14 13 14 15 17 17 19 19 19 19 19 19 20 19 19 19
18 18 17 18 18 18 17 17 17 17 16 15 13 13 13 13 14 15 15 14 13 12 14 15 15 15 14 14 14 16 16 18 18 19 20 19 20 20 21 20 20 20 20
20 20 20 19 19 19 19 18 17 17 16 16 15 13 13 14 13 14 14 15 14 13 15 16 16 16 16 16 16 17 17 18 19 19 20 21 21 21 21 21 21 21 22
23 22 22 22 21 21 21 21 17 16 15 14 14 13 13 11 11 11 12 12 12 12 16 17 17 16 16 16 17 19 19 19 20 21 21 21 21 21 21 21 21 21 22
25 24 24 23 23 23 23 23 23 19 16 15 14 13 12 11 10 11 11 11 11 12 16 17 16 16 16 16 19 20 21 20 21 21 21 21 21 21 22 22 21 21 22
25 25 24 24 24 24 23 23 23 22 22 20 16 14 12 10 10 9 10 11 12 13 15 15 15 15 17 18 19 19 20 21 22 22 22 22 22 22 23 23 22 22 22
24 23 23 23 23 23 23 23 23 22 22 21 19 17 15 11 10 9 9 12 13 13 14 14 14 16 17 18 19 20 21 22 22 22 23 23 22 22 22 22 22 22 22
23 22 22 21 22 22 22 22 22 22 21 20 19 17 14 12 12 11 10 11 12 12 14 15 16 17 17 18 19 21 22 22 23 23 23 23 23 22 23 23 22 22 22
22 21 20 19 20 21 21 21 21 21 20 20 18 16 11 12 12 12 10 10 11 13 16 17 18 18 19 20 21 22 22 22 23 23 23 23 23 23 22 22 22 23 22
21 21 20 19 18 19 19 19 19 19 19 19 17 14 11 12 11 11 11 13 14 15 16 18 19 20 20 21 22 22 23 23 23 23 23 23 23 23 22 22 22 21 21
22 22 21 19 17 17 18 18 19 18 18 17 14 12 12 14 14 15 16 16 16 17 18 19 21 22 21 21 20 21 22 22 22 22 22 22 23 22 22 21 21 21 20
22 22 21 20 18 18 18 17 16 16 15 14 15 16 16 17 18 18 18 18 18 19 19 20 21 22 22 22 21 21 21 21 21 21 21 22 22 22 21 21 20 20 19
22 22 22 22 21 20 19 19 18 18 18 18 19 19 19 20 20 19 20 20 19 20 20 20 20 21 21 22 22 22 21 22 22 22 22 21 21 21 21 20 20 18 18
23 23 23 23 22 22 21 21 21 20 20 20 20 20 20 21 21 20 20 20 21 21 21 20 21 21 21 22 22 22 21 21 23 23 22 22 21 21 20 20 18 18 18